Date_and_time,latitude,longitude,wind_speed,RelWindDirFrom,WindDirFrom,air_pressure,air_temperature,relative_humidity,Temp,platform_speed_wrt_ground,air_pressure_at_mean_sea_level,platform_orientation
2018-09-04 23:40,50.6304266666667,-96.9807583333333,8.9,15.0,308,991.21,17.2,47,19.16,0.0,1017.50,90.0
2018-09-04 23:50,50.6304333333333,-96.9807633333333,7.6,13.1,323,991.24,17.3,48,19.15,0.0,1017.53,90.0
2018-09-05 00:00,50.6304333333333,-96.98077,9.0,13.6,321,991.20,17.3,48,19.15,0.0,1017.50,106.8
2018-09-05 00:10,50.630435,-96.9807716666667,7.6,11.6,318,991.35,17.3,48,19.15,0.0,1017.65,106.8
2018-09-05 00:20,50.630445,-96.9807766666667,6.2,9.6,320,991.48,17.3,49,19.15,0.0,1017.79,106.8
2018-09-05 00:30,50.6304433333333,-96.98077,7.2,10.6,318,991.52,17.1,48,19.15,0.0,1017.83,106.8
2018-09-05 00:40,50.6304416666667,-96.9807683333333,6.1,10.0,313,991.60,16.8,49,19.15,0.0,1017.93,106.8
2018-09-05 00:50,50.6304433333333,-96.980765,4.8,7.7,310,991.72,16.4,50,19.14,0.0,1018.08,106.8
2018-09-05 01:00,50.6304433333333,-96.980765,4.6,6.9,306,991.81,16.1,51,19.14,0.0,1018.18,38.0
2018-09-05 01:10,50.630445,-96.980765,4.2,6.3,305,991.99,15.8,52,19.13,0.0,1018.36,38.0
2018-09-05 01:20,50.6304466666667,-96.9807633333333,3.7,6.6,299,992.14,15.5,53,19.13,0.0,1018.54,38.0
2018-09-05 01:30,50.6304466666667,-96.9807633333333,4.2,5.7,299,992.24,15.2,54,19.12,0.0,1018.64,38.0
2018-09-05 01:40,50.6304466666667,-96.9807616666667,3.8,5.4,298,992.32,14.8,55,19.11,0.0,1018.73,38.0
2018-09-05 01:50,50.6304466666667,-96.98076,4.4,7.1,295,992.40,14.6,56,19.11,0.0,1018.83,38.0
2018-09-05 02:00,50.6304483333333,-96.98076,4.1,6.0,300,992.55,14.6,56,19.10,0.0,1018.98,360.0
2018-09-05 02:10,50.6304483333333,-96.98076,4.4,6.1,304,992.69,14.2,58,19.10,0.0,1019.14,360.0
2018-09-05 02:20,50.6304483333333,-96.98077,4.6,6.7,304,992.79,13.8,60,19.09,0.0,1019.27,360.0
2018-09-05 02:30,50.6304483333333,-96.9807633333333,5.0,6.5,304,992.88,13.5,61,19.09,0.0,1019.39,360.0
2018-09-05 02:40,50.6304416666667,-96.9807383333333,4.4,5.9,302,992.93,13.2,62,19.09,0.0,1019.49,360.0
2018-09-05 02:50,50.6304433333333,-96.98077,4.6,6.5,300,993.01,13.0,63,19.08,0.0,1019.59,360.0
2018-09-05 03:00,50.6304483333333,-96.98076,5.5,7.5,301,993.20,12.9,64,19.07,0.0,1019.80,23.5
2018-09-05 03:10,50.6304483333333,-96.9807583333333,5.4,7.5,304,993.38,12.7,65,19.07,0.0,1020.01,23.5
2018-09-05 03:20,50.6304483333333,-96.98076,5.6,8.2,302,993.53,12.4,66,19.06,0.0,1020.19,23.5
2018-09-05 03:30,50.6304483333333,-96.9807583333333,6.0,7.6,301,993.66,12.2,67,19.04,0.0,1020.35,23.5
2018-09-05 03:40,50.6304333333333,-96.9807666666667,5.0,7.0,299,993.80,12.1,68,19.03,0.0,1020.51,23.5
2018-09-05 03:50,50.6304333333333,-96.9807566666667,5.4,7.4,300,993.84,11.9,69,19.02,0.0,1020.56,23.5
2018-09-05 04:00,50.6304366666667,-96.9807566666667,4.8,7.3,296,993.86,11.7,70,19.00,0.0,1020.61,131.7
2018-09-05 04:10,50.6304383333333,-96.9807583333333,4.4,7.0,292,993.90,11.5,72,18.98,0.0,1020.68,131.7
2018-09-05 04:20,50.6304383333333,-96.9807566666667,4.9,7.4,292,994.03,11.1,73,18.98,0.0,1020.85,131.7
2018-09-05 04:30,50.6304366666667,-96.9807583333333,5.5,8.1,296,994.11,10.9,75,18.97,0.0,1020.95,131.7
2018-09-05 04:40,50.6304383333333,-96.9807583333333,5.9,8.0,304,994.23,10.8,75,18.96,0.0,1021.09,131.7
2018-09-05 04:50,50.6304383333333,-96.98076,5.6,8.2,304,994.39,10.6,76,18.94,0.0,1021.27,131.7
2018-09-05 05:00,50.63044,-96.98076,5.0,7.2,298,994.46,10.4,78,18.94,0.0,1021.36,142.0
2018-09-05 05:10,50.6304466666667,-96.9808066666667,4.9,7.2,296,994.53,10.2,80,18.92,0.0,1021.45,142.0
2018-09-05 05:20,50.6304216666667,-96.9807766666667,5.8,7.8,296,994.60,9.9,81,18.91,0.0,1021.55,142.0
2018-09-05 05:30,50.6304383333333,-96.980775,5.4,7.9,292,994.71,9.6,83,18.90,0.0,1021.68,142.0
2018-09-05 05:40,50.6304383333333,-96.9807733333333,6.0,8.6,294,994.75,9.4,84,18.90,0.0,1021.74,142.0
2018-09-05 05:50,50.6304366666667,-96.9807716666667,5.4,7.8,295,994.75,9.3,84,18.90,0.0,1021.75,142.0
2018-09-05 06:00,50.63044,-96.980775,4.9,6.6,299,994.71,9.3,84,18.89,0.0,1021.73,240.8
2018-09-05 06:10,50.6304416666667,-96.9807616666667,4.4,6.3,291,994.75,9.2,85,18.87,0.0,1021.78,240.8
2018-09-05 06:20,50.63044,-96.9807683333333,4.9,6.8,283,994.79,9.0,85,18.87,0.0,1021.85,240.8
2018-09-05 06:30,50.63044,-96.9807666666667,4.9,6.9,274,994.91,8.8,87,18.85,0.0,1022.00,240.8
2018-09-05 06:40,50.6304416666667,-96.9807683333333,4.4,6.2,267,995.00,8.4,89,18.84,0.0,1022.11,240.8
2018-09-05 06:50,50.63044,-96.980765,4.8,7.2,270,995.05,8.2,89,18.83,0.0,1022.18,240.8
2018-09-05 07:00,50.63044,-96.980765,5.5,7.6,270,995.11,8.1,89,18.82,0.0,1022.26,347.4
2018-09-05 07:10,50.6304133333333,-96.9807516666667,5.1,7.2,271,995.17,7.9,89,18.81,0.0,1022.34,347.4
2018-09-05 07:20,50.6304383333333,-96.98077,5.4,7.4,270,995.23,7.7,90,18.80,0.0,1022.42,347.4
2018-09-05 07:30,50.6304433333333,-96.9807683333333,4.9,7.2,271,995.29,7.6,90,18.78,0.0,1022.51,347.4
2018-09-05 07:40,50.6304433333333,-96.9807733333333,5.4,7.8,273,995.43,7.5,91,18.77,0.0,1022.65,347.4
2018-09-05 07:50,50.6304366666667,-96.9807716666667,4.9,6.9,278,995.52,7.4,90,18.75,0.0,1022.76,347.4
2018-09-05 08:00,50.6304366666667,-96.9807716666667,5.3,8.2,283,995.69,7.5,88,18.73,0.0,1022.93,234.7
2018-09-05 08:10,50.630465,-96.9807866666667,5.4,8.3,279,995.82,7.4,89,18.72,0.0,1023.08,234.7
2018-09-05 08:20,50.63043,-96.9807633333333,6.1,9.3,283,995.85,7.3,88,18.72,0.0,1023.13,234.7
2018-09-05 08:30,50.6304333333333,-96.9807683333333,5.7,8.0,286,995.93,7.4,87,18.71,0.0,1023.23,234.7
2018-09-05 08:40,50.6304333333333,-96.980775,5.8,8.6,286,996.08,7.4,86,18.70,0.0,1023.38,234.7
2018-09-05 08:50,50.6304366666667,-96.9807733333333,5.5,7.8,285,996.17,7.5,85,18.68,0.0,1023.48,234.7
2018-09-05 09:00,50.6304366666667,-96.9807733333333,5.3,8.9,287,996.30,7.5,84,18.67,0.0,1023.62,360.0
2018-09-05 09:10,50.6304433333333,-96.9807866666667,4.7,7.4,292,996.35,7.5,84,18.65,0.0,1023.68,360.0
2018-09-05 09:20,50.6304383333333,-96.9807766666667,6.4,9.4,294,996.40,7.3,83,18.63,0.0,1023.75,360.0
2018-09-05 09:30,50.6304383333333,-96.9807766666667,5.3,7.4,288,996.50,7.2,83,18.60,0.0,1023.86,360.0
2018-09-05 09:40,50.6304416666667,-96.980775,5.5,8.3,290,996.55,7.1,83,18.58,0.0,1023.92,360.0
2018-09-05 09:50,50.6304416666667,-96.98077,5.9,8.6,295,996.60,7.1,82,18.53,0.0,1023.97,360.0
2018-09-05 10:00,50.6304416666667,-96.98077,5.6,7.9,287,996.71,7.0,83,18.51,0.0,1024.10,90.0
2018-09-05 10:10,50.6304216666667,-96.9807416666667,5.6,8.6,287,996.78,6.7,84,18.49,0.0,1024.18,90.0
2018-09-05 10:20,50.6304283333333,-96.98076,6.6,9.7,293,996.82,6.6,84,18.48,0.0,1024.22,90.0
2018-09-05 10:30,50.6304266666667,-96.9807616666667,6.5,9.4,294,996.87,6.5,83,18.48,0.0,1024.28,90.0
2018-09-05 10:40,50.6304266666667,-96.9807683333333,7.0,9.9,294,996.99,6.6,82,18.47,0.0,1024.40,90.0
2018-09-05 10:50,50.630435,-96.9808016666667,6.5,9.2,297,997.01,6.6,82,18.46,0.0,1024.42,90.0
2018-09-05 11:00,50.6304333333333,-96.9807833333333,6.2,8.8,293,997.10,6.4,83,18.45,0.0,1024.52,240.8
2018-09-05 11:10,50.6304316666667,-96.9807833333333,5.9,8.1,286,997.27,6.3,83,18.44,0.0,1024.71,240.8
2018-09-05 11:20,50.6304416666667,-96.9807616666667,5.5,8.1,279,997.36,6.1,84,18.42,0.0,1024.82,240.8
2018-09-05 11:30,50.6304316666667,-96.9807733333333,5.2,7.9,277,997.45,5.8,86,18.41,0.0,1024.93,240.8
2018-09-05 11:40,50.6304316666667,-96.98077,4.9,7.1,276,997.52,5.6,87,18.39,0.0,1025.01,240.8
2018-09-05 11:50,50.6304366666667,-96.98076,4.9,7.2,269,997.60,5.5,88,18.34,0.0,1025.10,240.8
2018-09-05 12:00,50.6304366666667,-96.9807616666667,4.9,7.2,271,997.66,5.4,88,18.32,0.0,1025.18,90.0
2018-09-05 12:10,50.630435,-96.9807583333333,5.0,7.3,275,997.78,5.4,88,18.32,0.0,1025.31,90.0
2018-09-05 12:20,50.6304333333333,-96.98076,4.9,6.9,275,997.84,5.2,87,18.29,0.0,1025.39,90.0
2018-09-05 12:30,50.6304333333333,-96.98076,4.8,7.0,276,997.86,5.3,87,18.27,0.0,1025.40,90.0
2018-09-05 12:40,50.6304333333333,-96.9807616666667,5.1,6.8,276,997.93,5.4,85,18.28,0.0,1025.47,90.0
2018-09-05 12:50,50.630435,-96.9807616666667,5.4,7.5,285,997.96,5.5,84,18.27,0.0,1025.49,90.0
2018-09-05 13:00,50.63044,-96.9807716666667,5.5,8.0,286,998.03,5.9,80,18.27,0.0,1025.55,270.0
2018-09-05 13:10,50.6304366666667,-96.9807633333333,5.1,7.8,288,998.15,6.4,77,18.26,0.0,1025.66,270.0
2018-09-05 13:20,50.630435,-96.980765,5.8,8.4,290,998.28,6.8,74,18.25,0.0,1025.79,270.0
2018-09-05 13:30,50.6304366666667,-96.9807683333333,5.7,8.8,291,998.43,7.2,73,18.21,0.0,1025.94,270.0
2018-09-05 13:40,50.630435,-96.9807983333333,5.0,8.1,298,998.58,7.6,70,18.17,0.0,1026.08,270.0
2018-09-05 13:50,50.6304316666667,-96.9807816666667,4.8,7.4,294,998.66,8.1,68,18.12,0.0,1026.14,270.0
2018-09-05 14:00,50.6304283333333,-96.9807783333333,5.5,8.5,304,998.65,8.5,65,18.09,0.0,1026.11,360.0
2018-09-05 14:10,50.6303933333333,-96.9807733333333,6.6,9.7,309,998.75,9.1,62,18.12,0.0,1026.19,360.0
2018-09-05 14:20,50.630415,-96.98075,7.2,10.5,306,998.81,9.4,61,18.11,0.0,1026.23,360.0
2018-09-05 14:30,50.63043,-96.98075,7.6,11.8,298,998.84,9.7,63,18.08,0.0,1026.26,360.0
2018-09-05 14:40,50.630425,-96.980775,6.4,11.0,286,999.01,9.9,64,18.07,0.0,1026.40,360.0
2018-09-05 14:50,50.630435,-96.980765,7.1,10.1,277,999.14,10.1,64,18.07,0.0,1026.51,360.0
2018-09-05 15:00,50.630435,-96.9807666666667,6.5,9.9,287,999.17,10.2,63,18.06,0.0,1026.51,270.0
2018-09-05 15:10,50.6304316666667,-96.9807633333333,7.0,10.9,287,999.24,10.5,58,18.07,0.0,1026.55,270.0
2018-09-05 15:20,50.63044,-96.98077,7.4,11.1,310,999.30,10.8,57,18.06,0.0,1026.58,270.0
2018-09-05 15:30,50.6304316666667,-96.9807683333333,8.6,12.2,299,999.30,10.8,56,18.06,0.0,1026.56,270.0
2018-09-05 15:40,50.630425,-96.98077,8.2,13.2,306,999.25,11.1,56,18.08,0.0,1026.47,270.0
2018-09-05 15:50,50.6304283333333,-96.9807616666667,7.8,11.5,291,999.43,11.4,54,18.08,0.0,1026.62,270.0
2018-09-05 16:00,50.6304266666667,-96.9807616666667,8.4,14.3,300,999.43,11.6,54,18.09,0.0,1026.58,176.8
2018-09-05 16:10,50.6304283333333,-96.9807616666667,6.9,12.1,300,999.56,11.8,54,18.10,0.0,1026.68,176.8
2018-09-05 16:20,50.6304283333333,-96.9807633333333,7.2,13.3,290,999.65,11.9,54,18.12,0.0,1026.76,176.8
2018-09-05 16:30,50.6304366666667,-96.9807816666667,6.6,11.6,281,999.67,12.0,54,18.15,0.0,1026.77,176.8
2018-09-05 16:40,50.63046,-96.9807766666667,8.0,13.4,296,999.63,12.2,52,18.17,0.0,1026.71,176.8
2018-09-05 16:50,50.6304416666667,-96.9807783333333,6.9,14.8,292,999.68,12.4,51,18.19,0.0,1026.75,176.8
2018-09-05 17:00,50.63044,-96.980775,7.7,13.0,292,999.66,12.5,46,18.21,0.0,1026.70,3.2
2018-09-05 17:10,50.6304416666667,-96.9807766666667,6.3,13.1,285,999.67,12.8,48,18.23,0.0,1026.69,3.2
2018-09-05 17:20,50.63044,-96.9807766666667,7.2,12.2,291,999.68,12.9,47,18.26,0.0,1026.69,3.2
2018-09-05 17:30,50.63044,-96.980775,6.0,11.4,290,999.67,13.2,46,18.28,0.0,1026.65,3.2
2018-09-05 17:40,50.6304416666667,-96.980775,8.0,14.5,306,999.61,13.2,45,18.31,0.0,1026.58,3.2
2018-09-05 17:50,50.63044,-96.9807733333333,7.9,13.8,289,999.60,13.5,43,18.34,0.0,1026.54,3.2
2018-09-05 18:00,50.63044,-96.9807716666667,5.7,11.7,283,999.61,13.6,42,18.36,0.0,1026.54,347.4
2018-09-05 18:10,50.6304366666667,-96.9807533333333,6.6,14.2,293,999.53,13.9,42,18.37,0.0,1026.43,347.4
2018-09-05 18:20,50.63044,-96.9807666666667,7.7,16.8,300,999.41,14.0,39,18.39,0.0,1026.30,347.4
2018-09-05 18:30,50.6304416666667,-96.98077,6.6,13.9,289,999.51,14.3,38,18.42,0.0,1026.38,347.4
2018-09-05 18:40,50.63044,-96.98077,4.3,10.6,290,999.52,14.5,38,18.46,0.0,1026.37,347.4
2018-09-05 18:50,50.63044,-96.98077,6.2,11.9,279,999.41,14.6,36,18.48,0.0,1026.24,347.4
2018-09-05 19:00,50.6304316666667,-96.9807816666667,5.2,11.5,282,999.37,14.9,36,18.50,0.0,1026.18,287.7
2018-09-05 19:10,50.6304383333333,-96.980775,4.7,11.4,293,999.38,15.2,34,18.55,0.0,1026.17,287.7
2018-09-05 19:20,50.63043,-96.980775,6.3,12.8,295,999.36,15.2,32,18.57,0.0,1026.14,287.7
2018-09-05 19:30,50.6304283333333,-96.980775,6.5,12.4,280,999.34,15.2,32,18.57,0.0,1026.12,287.7
2018-09-05 19:40,50.6304316666667,-96.9807716666667,6.2,12.2,298,999.32,15.5,31,18.60,0.0,1026.07,287.7
2018-09-05 19:50,50.6304333333333,-96.98077,5.9,11.9,272,999.30,15.5,30,18.59,0.0,1026.04,287.7
2018-09-05 20:00,50.630435,-96.9807666666667,6.5,12.2,261,999.16,15.7,30,18.61,0.0,1025.88,167.4
2018-09-05 20:10,50.6304366666667,-96.98077,5.6,11.2,298,999.10,15.8,28,18.67,0.0,1025.80,167.4
2018-09-05 20:20,50.6304366666667,-96.98077,6.1,12.7,286,999.12,16.0,29,18.66,0.0,1025.81,167.4
2018-09-05 20:30,50.6304366666667,-96.98077,6.1,13.3,303,999.10,16.1,29,18.63,0.0,1025.77,167.4
2018-09-05 20:40,50.6304366666667,-96.98077,4.5,12.3,279,999.18,16.1,29,18.58,0.0,1025.84,167.4
2018-09-05 20:50,50.6304366666667,-96.98077,7.0,11.4,274,999.11,16.2,28,18.57,0.0,1025.76,167.4
2018-09-05 21:00,50.63045,-96.980785,5.2,10.1,270,999.08,16.3,29,18.56,0.0,1025.71,323.4
2018-09-05 21:10,50.630445,-96.980765,5.5,9.9,289,999.00,16.5,29,18.55,0.0,1025.62,323.4
2018-09-05 21:20,50.6304433333333,-96.9807633333333,6.9,11.6,275,999.00,16.5,29,18.56,0.0,1025.62,323.4
2018-09-05 21:30,50.6304416666667,-96.9807633333333,6.0,9.5,255,999.07,16.5,28,18.66,0.0,1025.67,323.4
2018-09-05 21:40,50.6304416666667,-96.9807633333333,5.8,11.2,275,998.99,16.7,28,18.65,0.0,1025.58,323.4
2018-09-05 21:50,50.63044,-96.980765,7.2,10.5,304,999.00,16.8,27,18.58,0.0,1025.58,323.4
2018-09-05 22:00,50.63044,-96.9807666666667,6.4,10.3,285,999.05,16.9,26,18.51,0.0,1025.62,49.4
2018-09-05 22:10,50.630435,-96.98078,4.7,8.5,279,999.11,17.0,27,18.50,0.0,1025.67,49.4
2018-09-05 22:20,50.6304333333333,-96.9807766666667,6.6,11.9,278,999.03,17.0,26,18.54,0.0,1025.58,49.4
2018-09-05 22:30,50.6304316666667,-96.9807933333333,6.3,10.5,277,998.92,17.2,26,18.52,0.0,1025.46,49.4
2018-09-05 22:40,50.63043,-96.98077,5.2,11.0,294,998.90,17.2,26,18.48,0.0,1025.43,49.4
2018-09-05 22:50,50.6304283333333,-96.98075,5.8,10.0,271,998.99,17.2,26,18.44,0.0,1025.52,49.4
2018-09-05 23:00,50.6304316666667,-96.9807566666667,5.9,10.1,265,999.01,17.2,27,18.43,0.0,1025.53,131.7
2018-09-05 23:10,50.6304333333333,-96.98076,3.8,7.3,285,998.94,17.4,26,18.44,0.0,1025.45,131.7
2018-09-05 23:20,50.6304333333333,-96.9807616666667,5.3,8.6,263,999.03,17.3,27,18.51,0.0,1025.55,131.7
2018-09-05 23:30,50.6304033333333,-96.980755,5.6,9.6,273,999.01,17.2,26,18.57,0.0,1025.52,131.7
2018-09-05 23:40,50.6304283333333,-96.9807633333333,4.8,8.0,260,999.01,17.1,26,18.57,0.0,1025.52,131.7
2018-09-05 23:50,50.6304783333333,-96.9807783333333,5.0,7.8,246,998.95,17.0,26,18.60,0.0,1025.46,131.7
